Regional Weather Roundup
Issued by NWS

Home | Current Version | Previous Version | Text Only | Print | Product List | Glossary On
Versions: 1 2 3 4 5 6 7 8 9 10 11 12 13 14 15 16 17 18 19 20 21 22 23 24 25 26 27 28 29 30 31 32 33 34 35 36 37 38 39 40 41 42 43 44 45 46 47 48 49 50
000
ASUS43 KMPX 291410
RWRMN
WEATHER ROUNDUP FOR MINNESOTA
NATIONAL WEATHER SERVICE TWIN CITIES/CHANHASSEN MN
900 AM CDT FRI MAY 29 2015


NOTE: "FAIR" INDICATES FEW OR NO CLOUDS BELOW 12,000 FEET WITH NO
SIGNIFICANT WEATHER AND/OR OBSTRUCTIONS TO VISIBILITY. N/A MEANS
CURRENT SKY AND/OR WEATHER CONDITIONS ARE NOT AVAILABLE.

MNZ060>063-068>070-291500-
   Twin Cities Metro

CITY           SKY/WX    TMP DP  RH WIND       PRES   REMARKS
TWIN CITIES    CLOUDY    68  64  87 S7        29.86F
ST PAUL        CLOUDY    68  65  90 S6        29.87S
CRYSTAL        CLOUDY    70  64  81 S5        29.86R
LAKEVILLE      CLOUDY    64  64 100 S9        29.88S
EDEN PRAIRIE   CLOUDY    68  64  87 S8        29.86S
SOUTH ST PAUL  CLOUDY    68  65  92 S10       29.87S
LAKE ELMO      PTSUNNY   68  64  88 S9        29.89R
$$
MNZ001>005-007-008-013>017-022>024-027-028-291500-
   Northwest Minnesota

CITY           SKY/WX    TMP DP  RH WIND       PRES   REMARKS
BEMIDJI        CLOUDY    52  51  95 N15       29.97R
HALLOCK        CLOUDY    43  37  81 N22G31    30.12R
ROSEAU         CLOUDY    45  39  81 N18G24    30.06R
WARROAD        CLOUDY    45  41  87 N16G23    30.05R
THIEF RVR FALL CLOUDY    45  39  81 N20G26    30.06R
CROOKSTON      CLOUDY    45  41  87 N24G32    30.09R
FOSSTON        CLOUDY    46  45  93 N22G28    30.03R
DETROIT LAKES  CLOUDY    52  50  93 N13G31    30.00R
MOORHEAD       CLOUDY    46  45  93 N30G36    30.04R
PARK RAPIDS    CLOUDY    58  54  86 N15G21    29.93R
MAHNOMEN       CLOUDY    49  46  92 N17G26    30.02R
$$
MNZ006-009>011-018-025>026-291500-
   North Central Minnesota

CITY           SKY/WX    TMP DP  RH WIND       PRES   REMARKS
BAUDETTE       CLOUDY    48  44  86 NW20G25   29.99R
FLAG ISLAND    CLOUDY    46  43  87 N23       30.02R
INTL FALLS     CLOUDY    53  52  96 NW16      29.92R
WASKISH        CLOUDY    48  48 100 NW13G23   29.99R
BIG FORK       DRIZZLE   55  54  94 N10G17    29.92R
LONGVILLE      DRIZZLE   59  57  94 NW7G17    29.91R
GRAND RAPIDS   CLOUDY    61  55  82 W8        29.90R
CRANE LAKE     DRIZZLE   57  55  94 N9        29.89R
ORR            CLOUDY    59  55  88 NW9       29.85R
COOK           RAIN      57  57 100 W5        29.88R
WALKER         CLOUDY    55  53  94 N9        29.93R
$$
MNZ012-019>021-037-291500-
   Northeast Minnesota

CITY           SKY/WX    TMP DP  RH WIND       PRES   REMARKS
DULUTH         CLOUDY    59  56  89 SW8       29.87R
HIBBING        LGT RAIN  58  52  80 CALM      29.88R
EVELETH        PTSUNNY   57  52  82 CALM      29.88S
DULUTH HARBOR  CLOUDY    46  43  87 CALM      29.89R
TWO HARBORS    LGT RAIN  57  54  88 SW3       29.85S
SILVER BAY     CLOUDY    61  54  77 S3        29.84S
GRAND MARAIS     N/A     42  40  92 CALM      29.87R
G MARAIS ARPRT CLOUDY    57  52  82 SW3       29.88S
$$
MNZ029>031-032-039>041-046>048-054>057-064-291500-
   West Central Minnesota

CITY           SKY/WX    TMP DP  RH WIND       PRES   REMARKS
FERGUS FALLS   CLOUDY    54  54 100 N14       29.96R FOG
WHEATON        RAIN      48  48 100 N23G33    29.99R
MORRIS         LGT RAIN  61  61 100 N15       29.92R
ALEXANDRIA     CLOUDY    62  59  90 N12       29.93R
ELBOW LAKE     DRIZZLE   58  56  93 N15       29.93R
WADENA         CLOUDY    59  57  94 N13G18    29.92R
GLENWOOD       DRIZZLE   63  61  94 N5        29.92R
APPLETON       LGT RAIN  63  61  94 N13       29.91R
BENSON         LGT RAIN  63  57  82 NE7       29.91R
ORTONVILLE     LGT RAIN  55  54  94 N22G28    29.94R
MADISON        LGT RAIN  61  59  94 N9        29.92R
WILLMAR        LGT RAIN  66  63  88 N7        29.91R
$$
MNZ033>034-036-042>043-049>051-058-059-291500-
   Central Minnesota

CITY           SKY/WX    TMP DP  RH WIND       PRES   REMARKS
ST CLOUD       CLOUDY    65  61  87 N6        29.88R
SAUK CENTRE    FAIR      62  59  90 N6        29.91R
PAYNESVILLE    CLOUDY    62  59  91 W5        29.90R
AITKIN         CLOUDY    64  57  77 NW3       29.88R
PINE RIVER     LGT RAIN  61  61 100 N12       29.94R
BRAINERD       CLOUDY    63  58  83 NW5       29.90R
STAPLES        CLOUDY    61  59  94 NW6       29.91R
LONG PRAIRIE   CLOUDY    61  57  88 NW5       29.91S
LITTLE FALLS   CLOUDY    63  55  77 N5        29.90S
LITCHFIELD     CLOUDY    66  64  94 NW7       29.90R
BUFFALO        CLOUDY    67  62  82 W5        29.89R
MAPLE LAKE     CLOUDY    68  65  89 CALM      29.89R
$$
MNZ037-044-045-052-053-291500-
   East Central Minnesota

CITY           SKY/WX    TMP DP  RH WIND       PRES   REMARKS
PRINCETON      CLOUDY    70  64  83 SW6       29.88R
MORA           CLOUDY    64  61  88 SW3       29.90R
CAMBRIDGE      PTSUNNY   70  59  68 CALM      29.86R
RUSH CITY      CLOUDY    64  62  93 S3        29.88S
MOOSE LAKE     CLOUDY    63  59  88 CALM      29.86S
HINCKLEY       CLOUDY    64  63  94 SW6       29.88S
CLOQUET        CLOUDY    57  54  88 CALM      29.87S
MCGREGOR       CLOUDY    63  57  82 NW6       29.89R
$$
MNZ071>073-080-081-089-090-097-098-291500-
   Southwest Minnesota

CITY           SKY/WX    TMP DP  RH WIND       PRES   REMARKS
MONTEVIDEO     DRIZZLE   63  63 100 N8        29.92R
GRANITE FALLS  CLOUDY    62  60  93 NW10      29.92R
CANBY          HVY RAIN  61  59  95 N6        29.93R
MARSHALL       CLOUDY    63  55  77 N16       29.90R
REDWOOD FALLS  CLOUDY    66  63  90 NW8       29.88R
OLIVIA         LGT RAIN  63  59  88 NW10      29.89R
PIPESTONE      CLOUDY    64  63  94 S2        29.90R
WINDOM         LGT RAIN  64  61  88 CALM      29.90R
WORTHINGTON    CLOUDY    63  59  88 S8        29.91R
JACKSON        CLOUDY    64  64 100 S10       29.90R
TRACY          LGT RAIN  65  63  93 NW9G16    29.91R
SLAYTON        RAIN      64  64  99 CALM      29.91R
$$
MNZ065>067-074>077-082>085-091>093-291500-
   South Central Minnesota

CITY           SKY/WX    TMP DP  RH WIND       PRES   REMARKS
MANKATO        CLOUDY    64  61  88 S12       29.87F
NEW ULM        CLOUDY    64  64 100 S10       29.87S
ST JAMES       LGT RAIN  66  64  94 S7        29.89R
FAIRMONT       CLOUDY    64  57  77 SE12      29.89R
GLENCOE        RAIN      67  65  91 S9        29.86R
FARIBAULT      DRIZZLE   66  63  88 S7        29.90S
OWATONNA       CLOUDY    66  63  88 S9        29.91F
WASECA         RAIN      63  61  94 SE9       29.90F
ALBERT LEA     LGT RAIN  64  63  94 CALM      29.92S
$$
MNZ078>079-086>088-094>096-291500-
   Southeast Minnesota

CITY           SKY/WX    TMP DP  RH WIND       PRES   REMARKS
ROCHESTER      LGT RAIN  66  63  90 SW13      29.94R
RED WING       CLOUDY    70  64  83 S3        29.89S
STANTON        LGT RAIN  68  63  84 S9        29.88S
DODGE CENTER   CLOUDY    66  64  94 SW9       29.92F
WINONA         PTSUNNY   70  61  73 SW6       29.93S
AUSTIN         CLOUDY    66  63  88 SW7       29.94R
PRESTON        PTSUNNY   66  62  85 S7        29.95R
$$
ABBREVIATIONS USED IN REMARKS
   TC - TEMPERATURES IN CELSIUS
  WCI - WIND CHILL INDEX
   HX - HEAT INDEX
  VSB - VISIBILITY
$$


USA.gov is the U.S. government's official web portal to all federal, state and local government web resources and services.